Katunayake, Sri Lanka

5:12 AM +0530 on September 18, 2019 (GMT +0530)
Bandaranaike International

Weather History for VCBI - August, 2019

Change the Weather History Date:

Tuesday, August 20, 2019

  Actual Average Record
Temperature  
Mean Temperature 82 °F -  
Max Temperature 87 °F 84 °F 89 °F (2015)
Min Temperature 76 °F 76 °F 75 °F (1998)
Cooling Degree Days 16    
Growing Degree Days 32 (Base 50)    
Moisture  
Dew Point 77 °F    
Average Humidity 86    
Maximum Humidity 100    
Minimum Humidity 70    
Precipitation  
Precipitation 0.08 in - - ()
Sea Level Pressure  
Sea Level Pressure 29.83 in    
Wind  
Wind Speed 5 mph ()    
Max Wind Speed 13 mph    
Max Gust Speed -    
Visibility 6.9 miles    
Events Rain    
Averages and records for this station are not official NWS values.
T = Trace of Precipitation, MM = Missing Value Source: Averaged Metar Reports

Daily Weather History Graph

Daily Weather History Graph

Search for Another Location

Airport or City:

Astronomy

Aug. 20, 2019 Rise Set
Actual Time 6:04 AM +0530 6:23 PM +0530
Civil Twilight 5:42 AM +0530 6:45 PM +0530
Nautical Twilight 5:17 AM +0530 7:10 PM +0530
Astronomical Twilight 4:52 AM +0530 7:35 PM +0530
Moon 9:49 PM +0530 (8/20) 9:31 AM +0530 (8/20)
Length of Visible Light 13h 02m
Length of Day
12h 19m
Waning Gibbous, 81% of the Moon is Illuminated
Aug 20
Waning Gibbous
Aug 23
Last Quarter
Aug 30
New
Sep 6
First Quarter
Sep 14
Full

Hourly Weather History & Observations

Time (+0530) Temp. Heat Index Dew Point Humidity Pressure Visibility Wind Dir Wind Speed Gust Speed Precip Events Conditions
12:40 AM 80.6 °F 88.1 °F 78.8 °F 94% 29.86 in 6.2 mi South 3.5 mph - N/A   Scattered Clouds
1:40 AM 80.6 °F 87.1 °F 77.0 °F 89% 29.83 in 6.2 mi South 4.6 mph - N/A   Scattered Clouds
2:40 AM 78.8 °F - 77.0 °F 94% 29.83 in 6.2 mi South 3.5 mph - N/A   Scattered Clouds
3:40 AM 77.0 °F - 75.2 °F 94% 29.83 in 4.3 mi Variable 5.8 mph - N/A Rain Rain Showers
4:40 AM 78.8 °F - 75.2 °F 89% 29.83 in 6.2 mi South 3.5 mph - N/A   Partly Cloudy
5:30 AM 77 °F - 76 °F 94% 29.83 in 12 mi South 3.5 mph - -   Partly Cloudy
5:40 AM 77.0 °F - 77.0 °F 100% 29.83 in 6.2 mi South 3.5 mph - N/A   Scattered Clouds
6:40 AM 78.8 °F - 77.0 °F 94% 29.83 in 3.7 mi SSE 3.5 mph - N/A   Partly Cloudy
7:40 AM 80.6 °F 87.1 °F 77.0 °F 89% 29.86 in 3.7 mi SSE 3.5 mph - N/A   Partly Cloudy
8:30 AM 79 °F - 78 °F 96% 29.87 in 6 mi South 4.6 mph - - Rain Light Rain Showers
8:40 AM 84.2 °F 96.1 °F 78.8 °F 84% 29.86 in 5.6 mi South 3.5 mph - N/A   Scattered Clouds
10:40 AM 86.0 °F 99.3 °F 78.8 °F 79% 29.89 in 6.2 mi WSW 11.5 mph - N/A   Scattered Clouds
11:30 AM 86 °F - 78 °F 70% 29.88 in 12 mi SW 8.1 mph - -   Mostly Cloudy
1:40 PM 86.0 °F 96.9 °F 77.0 °F 74% 29.83 in 6.2 mi WSW 10.4 mph - N/A   Mostly Cloudy
2:30 PM 85 °F - 77 °F 72% 29.82 in 12 mi SW 11.5 mph - -   Mostly Cloudy
2:40 PM 84.2 °F 96.1 °F 78.8 °F 84% 29.80 in 6.2 mi SW 11.5 mph - N/A   Mostly Cloudy
4:40 PM 84.2 °F 94.1 °F 77.0 °F 79% 29.77 in 6.2 mi WSW 11.5 mph - N/A   Scattered Clouds
5:30 PM 84 °F - 76 °F 72% 29.79 in 12 mi SW 6.9 mph - -   Partly Cloudy
6:40 PM 82.4 °F 90.9 °F 77.0 °F 84% 29.80 in 6.2 mi SW 12.7 mph - N/A   Partly Cloudy
7:40 PM 82.4 °F 90.9 °F 77.0 °F 84% 29.80 in 6.2 mi SSW 11.5 mph - N/A   Scattered Clouds
8:30 PM 82 °F - 77 °F 80% 29.83 in 6 mi South 9.2 mph - -   Mostly Cloudy
9:40 PM 82.4 °F 90.9 °F 77.0 °F 84% 29.86 in 6.2 mi SW 10.4 mph - N/A   Scattered Clouds
11:40 PM 80.6 °F 87.1 °F 77.0 °F 89% 29.86 in 6.2 mi SW 9.2 mph - N/A   Partly Cloudy